This demonstration page uses our WeatherBlox Daily Observations layout. Learn more.

Left ArrowRight Arrow

41.12389, -100.76542

Hourly Observations for January 6, 2019

Temp ( °F °C ) Dew Point ( °F °C ) Humidity (%) Winds ( mph kmh ) Pressure ( in mb ) Visibility ( mi km ) Precip ( " mm )
12:53 am 00:53 Clear 36 2.2 32 0 86 86 ESE 7 11 29.93 1014 10 16 0.00 0.00
1:53 am 01:53 Clear 35 1.7 32 0 89 89 SE 3 6 29.92 1013 10 16 0.00 0.00
2:53 am 02:53 Clear 34 1.1 32 0 92 92 E 3 6 29.90 1012 10 16 0.00 0.00
3:53 am 03:53 Clear 34 1.1 32 0 92 92 ESE 3 6 29.85 1011 10 16 0.00 0.00
4:53 am 04:53 Clear 34 1.1 32 0 92 92 ENE 3 6 29.83 1010 10 16 0.00 0.00
5:53 am 05:53 Clear 32 0 30 -1.1 92 92 SE 6 9 29.81 1009 9 14 0.00 0.00
6:53 am 06:53 Clear with Mist and Fog 31 -0.6 30 -1.1 96 96 Calm 29.79 1009 5 8 0.00 0.00
7:53 am 07:53 Clear 30 -1.1 30 -1.1 100 100 Calm 29.78 1008 8 13 0.00 0.00
8:53 am 08:53 Partly Cloudy with Mist and Fog 30 -1.1 28 -2.2 92 92 N 6 9 29.78 1008 6 10 0.00 0.00
9:06 am 09:06 Mostly Cloudy with Mist and Fog 31 -0.6 29 -1.7 92 92 N 3 6 29.83 1010 6 10 0.00 0.00
9:53 am 09:53 Cloudy 34 1.1 32 0 92 92 Calm 29.75 1007 7 11 0.00 0.00
10:53 am 10:53 Cloudy with Mist and Fog 36 2.2 33 0.6 89 89 SE 3 6 29.70 1006 6 10 0.00 0.00
11:53 am 11:53 Cloudy with Mist and Fog 37 2.8 33 0.6 86 86 S 6 9 29.67 1005 6 10 0.00 0.00
12:53 pm 12:53 Cloudy with Mist and Fog 37 2.8 33 0.6 86 86 WNW 5 7 29.64 1004 6 10 0.00 0.00
1:53 pm 13:53 Cloudy with Mist and Fog 37 2.8 34 1.1 89 89 WNW 7 11 29.61 1003 5 8 0.00 0.00
2:53 pm 14:53 Cloudy with Mist and Fog 38 3.3 34 1.1 86 86 NW 6 9 29.58 1002 6 10 0.00 0.00
3:28 pm 15:28 Mostly Sunny 38 3.3 34 1.1 86 86 WSW 5 7 29.62 1003 7 11 0.00 0.00
3:53 pm 15:53 Sunny 38 3.3 34 1.1 86 86 Calm 29.59 1002 7 11 0.00 0.00
4:53 pm 16:53 Sunny with Mist and Fog 37 2.8 34 1.1 89 89 W 5 7 29.60 1002 6 10 0.00 0.00
5:53 pm 17:53 Clear with Mist and Fog 36 2.2 33 0.6 89 89 Calm 29.61 1003 6 10 0.00 0.00
6:53 pm 18:53 Clear with Mist and Fog 32 0 30 -1.1 92 92 SSE 5 7 29.61 1003 5 8 0.00 0.00
7:53 pm 19:53 Clear 34 1.1 32 0 92 92 Calm 29.62 1003 8 13 0.00 0.00
8:53 pm 20:53 Clear with Mist and Fog 32 0 30 -1.1 92 92 NW 3 6 29.64 1004 5 8 0.00 0.00
9:53 pm 21:53 Clear with Mist and Fog 33 0.6 31 -0.6 92 92 NNW 6 9 29.66 1005 6 10 0.00 0.00
10:53 pm 22:53 Clear 33 0.6 31 -0.6 92 92 WNW 6 9 29.64 1004 10 16 0.00 0.00
11:53 pm 23:53 Mostly Cloudy 42 5.6 32 0 68 68 WNW 10 17 29.63 1003 10 16 0.00 0.00

Powered by AerisWeather